[[{"header":{"parameterUnit":"m.s-1","parameterCategory":1,"la1":30.2992,"la2":30.254,"lo1":-89.0895,"lo2":-89.0443,"dy":0.0025,"dx":0.0025,"nx":19,"ny":19,"refTime":"2026-03-31T21:00:00:Z","depth":0,"parameterNumber":2,"parameterNumberName":"U-component_of_WINDS"},"data":[0,0,0,-3.1266,-3.1268,-3.1367,-3.1367,-3.1493,-3.1494,0,0,0,0,0,0,0,0,0,0,0,-3.1237,-3.1238,-3.1266,-3.1269,-3.1367,-3.1367,-3.1493,-3.1494,0,0,0,0,0,0,0,0,0,0,0,-3.1237,-3.1238,-3.1239,-3.1269,-3.1367,-3.1367,-3.1493,-3.1419,0,0,0,0,0,0,0,0,0,0,-3.1323,-3.1296,-3.1238,-3.1239,-3.127,-3.1366,-3.1367,-3.1415,-3.1423,-3.1449,0,-3.1472,0,-3.1485,-3.1503,-3.1503,0,0,0,-3.1269,-3.1289,-3.1316,-3.1239,-3.127,-3.1366,-3.1322,-3.142,-3.1429,-3.146,-3.1474,-3.1478,-3.1487,-3.1504,-3.1504,-3.1652,-3.1653,0,0,-3.1263,-3.1255,-3.1309,-3.1322,-3.1306,-3.1319,-3.1325,-3.1425,-3.144,-3.1474,-3.1481,-3.1489,-3.1505,-3.1506,-3.1651,-3.1652,0,0,0,-3.1248,-3.1251,-3.1275,-3.1317,-3.1334,-3.1322,-3.1329,-3.1435,-3.1444,-3.1483,-3.1491,-3.1505,-3.1507,-3.1651,-3.1652,-3.1676,0,0,0,-3.1244,-3.1242,-3.1273,-3.1269,-3.1333,-3.1386,-3.1337,-3.1437,-3.1448,-3.149,-3.1505,-3.1508,-3.165,-3.1651,-3.1674,-3.1688,0,0,0,-3.1231,-3.124,-3.1255,-3.1268,-3.131,-3.1384,-3.1399,-3.1439,-3.1453,-3.1503,-3.1508,-3.1649,-3.1651,-3.1672,-3.1685,-3.1723,0,0,0,-3.1214,-3.1276,-3.1255,-3.1327,-3.1309,-3.1399,-3.1398,-3.1466,-3.1512,-3.1506,-3.165,-3.1652,-3.1671,-3.1683,-3.1721,-3.1753,-3.1765,0,0,-3.1287,-3.1284,-3.1328,-3.1312,-3.1403,-3.1385,-3.1481,-3.1531,-3.1544,-3.1615,-3.1619,-3.1675,-3.1685,-3.1723,-3.1844,-3.1854,0,0,0,-3.1348,-3.1378,-3.1405,-3.1448,-3.1488,-3.1523,-3.156,-3.1579,-3.164,-3.1579,-3.17,-3.1707,-3.1729,-3.1745,-3.1753,-3.1773,-3.1659,-3.1659,-3.1659,-3.1438,-3.1451,-3.1523,-3.1548,-3.159,-3.1628,-3.1663,-3.1695,-3.1696,-3.1725,-3.1745,-3.1817,-3.1835,-3.1842,-3.1862,-3.1765,-3.1765,-3.1765,-3.1765,-3.1544,-3.1589,-3.159,-3.1659,-3.1673,-3.1732,-3.1772,-3.1771,-3.1828,-3.1803,-3.1824,-3.1793,-3.1852,-3.187,-3.1767,-3.1767,-3.1767,-3.1767,-3.1767,-3.1602,-3.1626,-3.1648,-3.1712,-3.176,-3.1785,-3.1839,-3.1851,-3.1862,-3.1883,-3.1904,-3.1904,-3.1903,-3.1893,-3.1893,-3.1893,-3.1894,-3.1894,-3.1894,-3.1652,-3.1677,-3.1721,-3.1769,-3.1799,-3.1839,-3.1879,-3.1908,-3.1944,-3.1948,-3.1948,-3.1945,-3.1857,-3.1832,-3.1898,-3.1897,-3.1897,-3.1896,-3.1896,-3.1751,-3.1731,-3.1799,-3.1828,-3.1886,-3.1933,-3.1948,-3.2007,-3.2033,-3.206,-3.2054,-3.1987,-3.1985,-3.1978,-3.1958,-3.2052,-3.2052,-3.2052,-3.2052,-3.1798,-3.1799,-3.1871,-3.1917,-3.1964,-3.1984,-3.2061,-3.2093,-3.2123,-3.214,-3.2129,-3.2105,-3.2098,-3.2099,-3.209,-3.2071,-3.2192,-3.2192,-3.2192,-3.1858,-3.1864,-3.1926,-3.1955,-3.2002,-3.2041,-3.2114,-3.2167,-3.2198,-3.2198,-3.2154,-3.2148,-3.2108,-3.2095,-3.2091,-3.2077,-3.2043,0,0]},{"header":{"parameterUnit":"m.s-1","parameterCategory":1,"la1":30.2992,"la2":30.254,"lo1":-89.0895,"lo2":-89.0443,"dy":0.0025,"dx":0.0025,"nx":19,"ny":19,"refTime":"2026-03-31T21:00:00:Z","depth":0,"parameterNumber":3,"parameterNumberName":"V-component_of_WINDS"},"data":[0,0,0,3.0574,3.0574,3.0533,3.0533,3.0494,3.0494,0,0,0,0,0,0,0,0,0,0,0,3.0595,3.0595,3.0574,3.0574,3.0534,3.0533,3.0494,3.0494,0,0,0,0,0,0,0,0,0,0,0,3.0595,3.0595,3.0595,3.0574,3.0534,3.0533,3.0494,3.052,0,0,0,0,0,0,0,0,0,0,3.0557,3.0584,3.0595,3.0595,3.0573,3.0534,3.0533,3.0521,3.0518,3.0518,0,3.0521,0,3.0507,3.0492,3.0492,0,0,0,3.0567,3.0586,3.0568,3.0595,3.0573,3.0534,3.055,3.0519,3.0516,3.0514,3.052,3.0518,3.0506,3.0492,3.0492,3.0516,3.0517,0,0,3.0569,3.0592,3.057,3.0567,3.0575,3.0551,3.0549,3.0517,3.0524,3.052,3.0517,3.0505,3.0491,3.0491,3.0516,3.0516,0,0,0,3.058,3.0594,3.0576,3.0569,3.0561,3.055,3.0547,3.0525,3.0518,3.0516,3.0505,3.0491,3.0491,3.0515,3.0516,3.0561,0,0,0,3.0581,3.06,3.0577,3.059,3.0561,3.0543,3.0557,3.052,3.0516,3.0505,3.0491,3.0491,3.0515,3.0516,3.0558,3.0578,0,0,0,3.0594,3.0601,3.0599,3.0592,3.0575,3.0543,3.0533,3.0519,3.0509,3.0492,3.0491,3.0514,3.0515,3.0556,3.0574,3.0592,0,0,0,3.0615,3.0637,3.06,3.062,3.0576,3.0571,3.0533,3.0528,3.0518,3.0491,3.0515,3.0516,3.0556,3.0572,3.059,3.0612,3.0623,0,0,3.0656,3.0643,3.0653,3.0619,3.0627,3.0575,3.0589,3.0558,3.0534,3.0523,3.0524,3.0559,3.0574,3.0592,3.0676,3.0685,0,0,0,3.0674,3.0682,3.0679,3.0672,3.065,3.0633,3.0597,3.0586,3.0576,3.0534,3.0569,3.0577,3.0587,3.0596,3.0604,3.0611,3.0521,3.0521,3.0521,3.0764,3.0735,3.075,3.0717,3.0711,3.0675,3.0667,3.0645,3.0616,3.0625,3.0621,3.0676,3.0688,3.0693,3.0701,3.063,3.063,3.063,3.063,3.0822,3.0829,3.0792,3.0794,3.0763,3.0763,3.073,3.071,3.0706,3.0676,3.0682,3.0653,3.0704,3.0709,3.0633,3.0633,3.0632,3.0632,3.0632,3.0878,3.0876,3.0863,3.0852,3.0846,3.081,3.0809,3.078,3.0752,3.0759,3.0753,3.0752,3.0748,3.0758,3.0758,3.0758,3.0759,3.0759,3.0759,3.0942,3.0926,3.0929,3.0909,3.0902,3.0888,3.0854,3.0845,3.0828,3.0807,3.0807,3.0778,3.0715,3.07,3.0762,3.0761,3.0761,3.0761,3.076,3.1012,3.0992,3.0998,3.0991,3.0966,3.0962,3.0926,3.0911,3.09,3.09,3.087,3.0828,3.0812,3.0806,3.0794,3.0876,3.0876,3.0876,3.0876,3.1061,3.105,3.105,3.1041,3.1029,3.0997,3.1004,3.0978,3.0947,3.0938,3.0922,3.0903,3.0898,3.0885,3.0877,3.0865,3.0963,3.0964,3.0964,3.1103,3.1091,3.1103,3.1074,3.1053,3.1035,3.1041,3.1032,3.0992,3.0967,3.0931,3.0927,3.0896,3.0887,3.0861,3.0849,3.0827,0,0]}]]